Weather History for Rickenbacker, OH

Change the Weather History Date:

Tuesday, January 7, 2014

  Actual Average Record
Temperature  
Mean Temperature 4 °F -  
Max Temperature 13 °F 37 °F 69 °F (2008)
Min Temperature -5 °F 24 °F -5 °F (2014)
Degree Days  
Heating Degree Days 61    
Moisture  
Dew Point -8 °F    
Average Humidity 58    
Maximum Humidity 63    
Minimum Humidity 51    
Precipitation  
Precipitation 0.00 in - - ()
Sea Level Pressure  
Sea Level Pressure 30.38 in    
Wind  
Wind Speed 18 mph (SW)    
Max Wind Speed 24 mph    
Max Gust Speed 31 mph    
Visibility 10 miles    
Events      
Averages and records for this station are not official NWS values.
T = Trace of Precipitation, MM = Missing Value Source: NWS Daily Summary

Daily Weather History Graph

Daily Weather History Graph

Search for Another Location

Airport:

Trip Planner

Search our weather history database for the weather conditions in past years. The results will help you decide how hot, cold, wet, or windy it might be!

Date:

Astronomy

Jan. 07, 2014 Rise Set
Actual Time 7:53 AM EST 5:23 PM EST
Civil Twilight 7:23 AM EST 5:53 PM EST
Nautical Twilight 6:49 AM EST 6:26 PM EST
Astronomical Twilight 6:16 AM EST 6:59 PM EST
Moon 11:42 AM EST (1/7) No Moon Set
Length of Visible Light 10h 30m
Length of Day
9h 30m
Waxing Crescent, 45% of the Moon is Illuminated
Jan 7
Waxing Crescent
Jan 7
First Quarter
Jan 15
Full
Jan 24
Last Quarter
Jan 30
New

Hourly Weather History & Observations

Time (EST) Temp. Windchill Dew Point Humidity Pressure Visibility Wind Dir Wind Speed Gust Speed Precip Events Conditions
12:15 AM -5.1 °F -29.0 °F -17.7 °F 55% 30.32 in 10.0 mi West 20.7 mph 31.1 mph N/A   Overcast
12:35 AM -5.1 °F -29.5 °F -17.5 °F 55% 30.33 in 10.0 mi West 21.9 mph 27.6 mph N/A   Overcast
12:55 AM -4.9 °F -28.2 °F -16.4 °F 58% 30.33 in 10.0 mi West 19.6 mph 25.3 mph N/A   Overcast
1:15 AM -4.9 °F -30.3 °F -16.1 °F 59% 30.33 in 10.0 mi WSW 24.2 mph 29.9 mph N/A   Overcast
1:35 AM -4.9 °F -29.3 °F -16.2 °F 58% 30.33 in 10.0 mi West 21.9 mph 29.9 mph N/A   Overcast
1:55 AM -4.9 °F -27.0 °F -15.9 °F 59% 30.33 in 10.0 mi West 17.3 mph 26.5 mph N/A   Overcast
2:15 AM -4.5 °F -28.3 °F -15.7 °F 59% 30.34 in 10.0 mi WSW 20.7 mph 26.5 mph N/A   Overcast
2:35 AM -4.4 °F -26.3 °F -15.5 °F 59% 30.35 in 10.0 mi West 17.3 mph 27.6 mph N/A   Overcast
2:55 AM -4.4 °F -28.6 °F -15.3 °F 59% 30.35 in 10.0 mi WSW 21.9 mph 31.1 mph N/A   Overcast
3:15 AM -4.4 °F -27.5 °F -15.7 °F 58% 30.36 in 10.0 mi WSW 19.6 mph 26.5 mph N/A   Overcast
3:35 AM -4.2 °F -27.8 °F -15.3 °F 59% 30.36 in 10.0 mi WSW 20.7 mph 24.2 mph N/A   Overcast
3:55 AM -4.0 °F -25.8 °F -14.8 °F 60% 30.35 in 10.0 mi WSW 17.3 mph 25.3 mph N/A   Overcast
4:15 AM -4.0 °F -26.4 °F -14.6 °F 60% 30.34 in 10.0 mi WSW 18.4 mph 24.2 mph N/A   Overcast
4:35 AM -4.0 °F -27.6 °F -15.0 °F 59% 30.33 in 10.0 mi WSW 20.7 mph 25.3 mph N/A   Overcast
4:55 AM -3.8 °F -24.3 °F -14.8 °F 59% 30.33 in 10.0 mi WSW 15.0 mph 25.3 mph N/A   Overcast
5:15 AM -3.5 °F -23.8 °F -14.1 °F 60% 30.34 in 10.0 mi WSW 15.0 mph - N/A   Mostly Cloudy
5:35 AM -3.5 °F -25.7 °F -13.9 °F 61% 30.34 in 10.0 mi WSW 18.4 mph - N/A   Overcast
5:55 AM -3.1 °F -24.0 °F -13.0 °F 63% 30.35 in 7.0 mi WSW 16.1 mph 24.2 mph N/A   Overcast
6:15 AM -3.1 °F -25.3 °F -13.0 °F 63% 30.35 in 10.0 mi WSW 18.4 mph 21.9 mph N/A   Overcast
6:35 AM -3.1 °F -24.0 °F -13.2 °F 62% 30.36 in 10.0 mi WSW 16.1 mph 21.9 mph N/A   Overcast
6:55 AM -3.1 °F -23.3 °F -13.4 °F 62% 30.36 in 10.0 mi WSW 15.0 mph 21.9 mph N/A   Mostly Cloudy
7:15 AM -3.1 °F -22.6 °F -13.0 °F 63% 30.37 in 10.0 mi SW 13.8 mph - N/A   Mostly Cloudy
7:35 AM -3.1 °F -24.0 °F -13.0 °F 63% 30.38 in 10.0 mi SW 16.1 mph 19.6 mph N/A   Mostly Cloudy
7:55 AM -2.7 °F -23.5 °F -13.0 °F 62% 30.38 in 10.0 mi WSW 16.1 mph 19.6 mph N/A   Mostly Cloudy
8:15 AM -2.4 °F -24.3 °F -13.0 °F 61% 30.38 in 10.0 mi WSW 18.4 mph 21.9 mph N/A   Overcast
8:35 AM -2.2 °F -24.1 °F -12.8 °F 61% 30.39 in 10.0 mi WSW 18.4 mph 21.9 mph N/A   Overcast
8:55 AM -1.7 °F -21.5 °F -12.6 °F 60% 30.40 in 10.0 mi WSW 15.0 mph 19.6 mph N/A   Mostly Cloudy
9:15 AM -0.8 °F -22.8 °F -11.6 °F 60% 30.41 in 10.0 mi WSW 19.6 mph 25.3 mph N/A   Overcast
9:35 AM -0.4 °F -21.7 °F -11.7 °F 59% 30.42 in 10.0 mi SW 18.4 mph 28.8 mph N/A   Overcast
9:55 AM 0.1 °F -21.0 °F -11.0 °F 59% 30.43 in 10.0 mi WSW 18.4 mph 26.5 mph N/A   Overcast
10:15 AM 1.0 °F -22.4 °F -10.3 °F 59% 30.44 in 10.0 mi WSW 24.2 mph 29.9 mph N/A   Mostly Cloudy
10:35 AM 1.6 °F -20.2 °F -10.1 °F 58% 30.44 in 10.0 mi WSW 20.7 mph 26.5 mph N/A   Scattered Clouds
10:55 AM 2.7 °F -17.2 °F -9.4 °F 57% 30.45 in 10.0 mi WSW 17.3 mph 28.8 mph N/A   Scattered Clouds
11:15 AM 3.2 °F -17.6 °F -9.2 °F 56% 30.43 in 10.0 mi WSW 19.6 mph 29.9 mph N/A   Scattered Clouds
11:35 AM 4.1 °F -15.3 °F -8.5 °F 56% 30.41 in 10.0 mi SW 17.3 mph 26.5 mph N/A   Scattered Clouds
11:55 AM 4.8 °F -14.4 °F -7.8 °F 56% 30.40 in 10.0 mi WSW 17.3 mph 24.2 mph N/A   Scattered Clouds
12:15 PM 5.5 °F -13.5 °F -7.2 °F 56% 30.40 in 10.0 mi WSW 17.3 mph 24.2 mph N/A   Scattered Clouds
12:35 PM 6.1 °F -14.3 °F -7.1 °F 55% 30.39 in 10.0 mi WSW 20.7 mph - N/A   Scattered Clouds
12:55 PM 6.4 °F -13.3 °F -7.4 °F 53% 30.38 in 10.0 mi SW 19.6 mph 24.2 mph N/A   Mostly Cloudy
1:15 PM 7.2 °F -10.8 °F -6.3 °F 54% 30.38 in 10.0 mi SW 16.1 mph 24.2 mph N/A   Mostly Cloudy
1:35 PM 7.7 °F -10.1 °F -5.8 °F 54% 30.38 in 10.0 mi SW 16.1 mph 23.0 mph N/A   Overcast
1:55 PM 8.6 °F -8.9 °F -4.9 °F 54% 30.38 in 10.0 mi SW 16.1 mph 26.5 mph N/A   Overcast
2:15 PM 9.5 °F -5.9 °F -4.4 °F 54% 30.37 in 10.0 mi SW 12.7 mph 21.9 mph N/A   Overcast
2:35 PM 9.1 °F -8.2 °F -4.9 °F 53% 30.38 in 10.0 mi SW 16.1 mph 23.0 mph N/A   Overcast
2:55 PM 9.0 °F -9.0 °F -4.9 °F 53% 30.38 in 10.0 mi WSW 17.3 mph 20.7 mph N/A   Overcast
3:15 PM 9.7 °F -7.5 °F -4.7 °F 52% 30.38 in 10.0 mi WSW 16.1 mph 23.0 mph N/A   Overcast
3:35 PM 10.4 °F -6.0 °F -3.8 °F 53% 30.38 in 10.0 mi WSW 15.0 mph 21.9 mph N/A   Overcast
3:55 PM 10.4 °F -4.8 °F -4.5 °F 51% 30.38 in 10.0 mi SW 12.7 mph 21.9 mph N/A   Mostly Cloudy
4:15 PM 10.2 °F -3.5 °F -3.6 °F 54% 30.38 in 10.0 mi SW 10.4 mph 19.6 mph N/A   Mostly Cloudy
4:35 PM 10.4 °F -5.4 °F -3.6 °F 53% 30.38 in 10.0 mi SW 13.8 mph 19.6 mph N/A   Scattered Clouds
4:55 PM 10.2 °F -6.3 °F -4.0 °F 53% 30.38 in 10.0 mi SSW 15.0 mph - N/A   Clear
5:15 PM 10.0 °F -7.1 °F -3.6 °F 54% 30.38 in 10.0 mi SW 16.1 mph 19.6 mph N/A   Scattered Clouds
5:35 PM 10.0 °F -5.2 °F -3.5 °F 55% 30.37 in 10.0 mi SW 12.7 mph - N/A   Clear
5:55 PM 10.4 °F -2.4 °F -3.1 °F 55% 30.37 in 10.0 mi SW 9.2 mph - N/A   Scattered Clouds
6:15 PM 10.6 °F -2.2 °F -2.6 °F 56% 30.37 in 10.0 mi SW 9.2 mph - N/A   Mostly Cloudy
6:35 PM 10.9 °F -2.6 °F -2.0 °F 56% 30.38 in 10.0 mi SW 10.4 mph - N/A   Overcast
6:55 PM 11.3 °F -3.6 °F -1.7 °F 56% 30.38 in 10.0 mi SW 12.7 mph 18.4 mph N/A   Overcast
7:15 PM 11.3 °F -1.3 °F -2.0 °F 55% 30.38 in 10.0 mi SW 9.2 mph - N/A   Overcast
7:35 PM 11.5 °F -3.4 °F -1.8 °F 55% 30.38 in 10.0 mi SSW 12.7 mph - N/A   Overcast
7:55 PM 11.3 °F -3.6 °F -0.8 °F 58% 30.39 in 10.0 mi SSW 12.7 mph - N/A   Overcast
8:15 PM 11.3 °F -2.9 °F -0.4 °F 59% 30.39 in 10.0 mi SSW 11.5 mph - N/A   Overcast
8:35 PM 11.7 °F -3.2 °F -0.4 °F 58% 30.39 in 10.0 mi SSW 12.7 mph - N/A   Overcast
8:55 PM 11.7 °F -1.7 °F 0.1 °F 60% 30.39 in 10.0 mi SSW 10.4 mph 18.4 mph N/A   Overcast
9:15 PM 11.7 °F -2.5 °F 0.5 °F 61% 30.39 in 10.0 mi SSW 11.5 mph - N/A   Overcast
9:35 PM 11.5 °F -2.7 °F 0.3 °F 61% 30.40 in 10.0 mi SSW 11.5 mph - N/A   Overcast
9:55 PM 11.8 °F -3.6 °F 1.0 °F 62% 30.40 in 10.0 mi SSW 13.8 mph - N/A   Overcast
10:15 PM 12.0 °F -1.3 °F 1.2 °F 62% 30.40 in 10.0 mi SSW 10.4 mph 16.1 mph N/A   Overcast
10:35 PM 12.2 °F -0.2 °F 1.6 °F 63% 30.40 in 10.0 mi SSW 9.2 mph - N/A   Overcast
10:55 PM 12.6 °F 0.2 °F 1.8 °F 62% 30.40 in 10.0 mi SW 9.2 mph - N/A   Overcast
11:15 PM 12.9 °F -0.2 °F 1.8 °F 61% 30.39 in 10.0 mi SW 10.4 mph - N/A   Overcast
11:35 PM 13.1 °F 1.8 °F 1.9 °F 61% 30.39 in 10.0 mi SSW 8.1 mph - N/A   Overcast
11:55 PM 13.1 °F -0.7 °F 1.8 °F 61% 30.39 in 10.0 mi SSW 11.5 mph - N/A   Overcast